Fecha, hora, temperatura, viento dirección y velocidad, humedad y presión.

  • 11-04-2019 21:00:00 | 1.40°C | Oeste |5.00 km/h | 78.00% | 826.40 hPa
  • 11-04-2019 20:00:00 | 2.20°C | Noroeste |10.00 km/h | 76.00% | 826.00 hPa
  • 11-04-2019 19:00:00 | 3.00°C | Noroeste |13.00 km/h | 71.00% | 825.60 hPa
  • 11-04-2019 18:00:00 | 4.70°C | Oeste |12.00 km/h | 63.00% | 825.30 hPa
  • 11-04-2019 17:00:00 | 4.10°C | Noroeste |14.00 km/h | 62.00% | 825.40 hPa
  • 11-04-2019 16:00:00 | 4.20°C | Noroeste |14.00 km/h | 59.00% | 825.30 hPa
  • 11-04-2019 15:00:00 | 5.20°C | Noroeste |13.00 km/h | 66.00% | 825.20 hPa
  • 11-04-2019 14:00:00 | 3.90°C | Noroeste |13.00 km/h | 62.00% | 825.30 hPa
  • 11-04-2019 13:00:00 | 3.00°C | Oeste |10.00 km/h | 65.00% | 825.40 hPa
  • 11-04-2019 12:00:00 | 2.60°C | Oeste |13.00 km/h | 64.00% | 825.70 hPa
  • 11-04-2019 11:00:00 | 1.60°C | Norte |7.00 km/h | 60.00% | 825.60 hPa
  • 11-04-2019 10:00:00 | 0.90°C | Noroeste |8.00 km/h | 70.00% | 825.50 hPa
  • 11-04-2019 09:00:00 | -1.20°C | Oeste |6.00 km/h | 77.00% | 825.30 hPa
  • 11-04-2019 08:00:00 | -1.80°C | Sudoeste |5.00 km/h | 82.00% | 825.00 hPa
  • 11-04-2019 07:00:00 | -1.80°C | Sudoeste |6.00 km/h | 84.00% | 824.70 hPa
  • 11-04-2019 06:00:00 | -1.50°C | Oeste |12.00 km/h | 86.00% | 824.70 hPa
  • 11-04-2019 05:00:00 | -1.10°C | Oeste |10.00 km/h | 85.00% | 824.30 hPa
  • 11-04-2019 04:00:00 | -0.80°C | Oeste |6.00 km/h | 97.00% | 824.40 hPa
  • 11-04-2019 03:00:00 | -1.00°C | Oeste |7.00 km/h | 98.00% | 824.30 hPa
  • 11-04-2019 02:00:00 | -0.70°C | Oeste |5.00 km/h | 98.00% | 824.80 hPa
  • 11-04-2019 01:00:00 | -0.60°C | Noroeste |5.00 km/h | 98.00% | 824.70 hPa
  • 11-04-2019 00:00:00 | -0.60°C | Oeste |7.00 km/h | 96.00% | 824.70 hPa
  • 10-04-2019 23:00:00 | -0.30°C | Noroeste |5.00 km/h | 93.00% | 824.80 hPa
  • 10-04-2019 22:00:00 | -0.50°C | Oeste |2.00 km/h | 91.00% | 824.80 hPa
    • diseño web asturias Información sobre el estado de las mareas, altura de la marejada, temperatura del agua y otros datos de Gijón en Asturias.

      Surf Gijón